This is the latest recevied weather packets stored in our database for station/object EW1958. If no packets are shown the sender has not sent any weather packets the latest 10 day(s).
| Time | Temp. | Humidity | Pressure | Rain* | Wind** | Luminosity | Snow |
|---|---|---|---|---|---|---|---|
| 1778277897 | 16.11° C | 54% | 1024.3 hPa | 0 mm | - | - | - |
| 1778277443 | 16.11° C | 57% | 1024.2 hPa | 0 mm | - | - | - |
| 1778277143 | 16.11° C | 56% | 1024.2 hPa | 0 mm | - | - | - |
| 1778276842 | 15.56° C | 59% | 1024.3 hPa | 0 mm | - | - | - |
| 1778276540 | 15.56° C | 60% | 1024.2 hPa | 0 mm | - | - | - |
| 1778276239 | 15.56° C | 58% | 1024.2 hPa | 0 mm | - | - | - |
| 1778276088 | 15° C | 61% | 1024.2 hPa | 0 mm | - | - | - |
| 1778275638 | 15° C | 60% | 1024.1 hPa | 0 mm | - | - | - |
| 1778275465 | 15° C | 59% | 1024.2 hPa | 0 mm | - | - | - |
| 1778275038 | 15° C | 61% | 1024.2 hPa | 0 mm | - | - | - |
| 1778274736 | 15° C | 60% | 1024.2 hPa | 0 mm | - | - | - |
| 1778274563 | 14.44° C | 62% | 1024.2 hPa | 0 mm | - | - | - |
| 1778274132 | 14.44° C | 63% | 1024.2 hPa | 0 mm | - | - | - |
| 1778273830 | 13.89° C | 63% | 1024.2 hPa | 0 mm | - | - | - |
| 1778273532 | 13.89° C | 64% | 1024.2 hPa | 0 mm | - | - | - |
| 1778273231 | 13.89° C | 62% | 1024.2 hPa | 0 mm | - | - | - |
| 1778272930 | 13.89° C | 63% | 1024 hPa | 0 mm | - | - | - |
| 1778272783 | 14.44° C | 63% | 1024.1 hPa | 0 mm | - | - | - |
| 1778272325 | 14.44° C | 63% | 1024 hPa | 0 mm | - | - | - |
| 1778272181 | 14.44° C | 64% | 1024.1 hPa | 0 mm | - | - | - |
| 1778271880 | 14.44° C | 67% | 1024 hPa | 0 mm | - | - | - |
| 1778271428 | 13.89° C | 67% | 1024.1 hPa | 0 mm | - | - | - |
| 1778271126 | 13.89° C | 66% | 1024 hPa | 0 mm | - | - | - |
| 1778270954 | 13.33° C | 68% | 1024 hPa | 0 mm | - | - | - |
| 1778270526 | 13.33° C | 71% | 1024 hPa | 0 mm | - | - | - |
* Rain latest hour (hover to see other rain measurements)
** Current wind speed in m/s (hover to see current wind gust speed)